Hourly Data Report for March 15, 2020

TORONTO CITY
ONTARIO
Current Station Operator: ECCC - MSC

43°40'00.000" N
79°24'00.000" W
112.50 m
6158355
71508
XTO

Download Data

Hourly Data (March 2020)
Hourly Data Report for March 15, 2020
TIME
LST
Temp Definition
°C
Dew Point Definition
°C
Rel Hum Definition
%
Precip. Amount Definition
mm

Wind Dir Definition
10's deg

Wind Spd Definition
km/h
Visibility Definition
km
Stn Press Definition
kPa
Hmdx Definition


Wind Chill Definition


Weather Definition


00:00 0.4 -6.2 61 0.0       101.84     LegendNANA
01:00 0.4 -6.7 59 0.0       101.86     LegendNANA
02:00 0.2 -6.7 60 0.0       101.89     LegendNANA
03:00 0.1 -7.5 57 0.0       101.94     LegendNANA
04:00 -0.1 -10.1 47 0.0       102.01     LegendNANA
05:00 -0.6 -10.9 46 0.0       102.14     LegendNANA
06:00 -1.5 -12.2 44 0.0       102.22     LegendNANA
07:00 -2.1 -12.9 43 0.0       102.27     LegendNANA
08:00 -1.7 -14.0 39 0.0       102.34     LegendNANA
09:00 -0.7 -15.2 32 0.0       102.41     LegendNANA
10:00 0.8 -16.1 27 0.0       102.46     LegendNANA
11:00 1.6 -17.3 23 0.0       102.45     LegendNANA
12:00 2.7 -18.0 20 0.0       102.44     LegendNANA
13:00 3.5 -15.2 24 0.0       102.41     LegendNANA
14:00 3.1 -11.9 32 0.6       102.35     LegendNANA
15:00 1.9 -12.1 35 0.2       102.33     LegendNANA
16:00 1.6 -12.0 36 0.0       102.28     LegendNANA
17:00 1.6 -11.2 38 0.0       102.24     LegendNANA
18:00 1.2 -10.7 41 0.0       102.23     LegendNANA
19:00 1.2 -11.7 38 0.0       102.26     LegendNANA
20:00 0.8 -15.9 27 0.0       102.31     LegendNANA
21:00 0.6 -16.7 26 0.0       102.31     LegendNANA
22:00 0.4 -15.9 28 0.0       102.32     LegendNANA
23:00 -0.3 -14.6 33 0.0       102.28     LegendNANA

Notes on Data Quality.

Legend

  • E = Estimated
  • M = Missing
  • NA = Not Available*
  • [empty] = Indicates an unobserved value
Date modified: